sat.trackr.live / text

‹ back to catalog

STARLINK-3863

NORAD 52465 · 2022-049Q

PAYLOAD ACTIVE UNKNOWN

§ Identity

Operator
Country
US
Launch date
2022-05-06
Launch site
AFETR
Launch vehicle
Mass (kg)
RCS (m²)

Purposes: comms

External: N2YO · Heavens-Above · Gunter

§ Orbital elements

Epoch: 2026-05-25T04:09:25.144416Z

Period
95.44 min
Inclination
53.2151°
Eccentricity
0.0001283
Mean motion
15.08839741 rev/d
Perigee alt
538.9 km
Apogee alt
540.6 km
Semi-major
6,917.9 km
B*
3.0418e-5
RAAN
65.7709°
Arg perigee
88.4957°
Mean anomaly
271.6182°
Rev number
22,393

§ Raw data

STARLINK-38631 52465U 22049Q   26145.17320769  .00000196  00000+0  30418-4 0  99972 52465  53.2151  65.7709 0001283  88.4957 271.6182 15.08839741223932

JSON: /api/v1/satellites/52465 · /tle

For live sub-satellite position, see the globe view (requires WebGL).

§ Visibility from observer

Set your observer location to see the next 7 days of passes ≥ 10°. The values pass through the URL so the page stays shareable.

No JS? Fill the form by hand. The geolocation button needs JavaScript.